User: anonymous   Login
Location: Leeds
(37.2390°N, 113.3580°W)
Time: 10:41:15
(UTC-06:00)
Language:

SL-08 RB Rocket - Orbit

View from above orbital plane
View from above orbital plane
View from above satellite
View from above satellite

Ground track
Ground track

The orbit data is extracted from the following two-line orbital elements,

1 26387U 00033D   17202.15889639 +.00000081 +00000-0 +22392-4 0  9994
2 26387 097.9683 265.5726 0025492 226.9590 185.7564 14.68290943170558
Epoch (UTC): 21 July 2017 03:48:48
Eccentricity: 0.0025492
inclination: 97.9683°
perigee height: 648 km
apogee height: 684 km
right ascension of ascending node: 265.5726°
argument of perigee: 226.9590°
revolutions per day: 14.68290943
mean anomaly at epoch: 185.7564°
orbit number at epoch: 17055

The dashed part of the orbit path shows where the satellite is in the earth's shadow,  

DLR